Dewpoint
71 71 70 70 69 69 70 69 69 70 70 71 71 71 72 73 73 73 73 73 74 74 74 74 75 74 75 75 76 76 77 74 74 74 73 74 73 73 73 72 71 70
71 72 73 71 71 73 71 70 70 70 70 71 71 72 72 73 73 73 73 73 74 75 74 75 75 75 75 75 75 73 73 74 73 77 75 73 73 74 74 73 72 71
72 72 72 71 70 72 71 71 71 71 71 71 71 72 73 74 73 73 73 73 73 74 74 74 75 75 75 74 74 74 73 74 73 74 75 72 74 75 74 74 72 71
73 72 72 71 71 71 71 71 72 71 71 71 71 72 72 73 73 73 73 76 73 74 75 75 75 75 75 74 74 73 74 74 74 74 74 74 75 76 74 73 75 74
73 73 72 71 71 72 71 71 71 72 71 71 71 72 73 73 73 73 73 73 73 73 74 75 74 74 74 74 73 72 73 74 73 74 73 73 73 75 74 73 73 72
74 74 73 72 72 72 71 71 70 71 72 71 71 72 72 72 72 73 73 73 73 72 74 74 74 74 74 74 73 73 72 74 74 74 73 73 73 74 74 74 72 72
74 73 73 73 72 72 72 71 71 72 72 72 73 72 72 72 72 73 73 73 73 73 73 74 74 74 74 73 73 73 72 73 73 73 73 74 74 74 73 73 73 73
74 73 73 73 72 72 72 71 71 72 72 73 72 73 72 72 72 72 73 73 73 72 73 74 74 74 74 74 74 73 73 73 74 73 73 73 73 73 73 74 74 72
74 73 73 72 72 72 72 71 72 72 73 72 70 69 69 69 70 69 69 71 73 73 74 74 74 74 74 74 74 74 73 73 73 73 73 73 73 73 73 73 72 72
73 73 73 72 72 72 72 71 71 72 70 69 70 70 71 70 70 69 70 70 71 74 74 74 74 74 74 74 74 74 73 73 73 73 74 74 74 73 73 73 73 72
73 73 72 72 72 71 71 71 71 71 70 70 70 71 70 70 71 70 70 71 71 73 73 73 73 74 74 73 74 74 74 73 73 73 73 74 74 74 76 74 73 72
72 72 72 72 72 71 70 71 71 71 71 71 71 71 71 71 70 70 71 71 71 72 73 73 73 73 73 73 73 73 74 73 73 73 73 73 73 72 71 72 72 71
72 72 72 72 72 71 70 70 70 72 72 71 72 71 71 71 70 70 71 71 71 72 73 73 73 73 73 73 73 73 73 73 73 73 73 73 71 71 71 72 71 71
71 71 72 72 71 72 71 70 72 71 71 71 72 71 71 70 71 71 70 70 71 72 73 74 74 73 73 73 73 73 73 73 73 73 73 72 71 71 72 72 71 71
71 71 71 72 72 71 71 70 70 70 70 71 72 71 71 70 70 71 70 71 71 73 73 74 73 72 72 73 74 74 74 73 73 73 73 71 71 71 72 72 72 72
71 71 71 71 71 70 70 69 69 69 69 70 70 71 71 70 70 70 70 70 71 72 73 74 73 73 74 73 73 74 74 75 74 73 73 72 71 72 72 72 72 71
69 70 70 70 70 70 70 69 69 69 69 69 70 70 70 70 70 70 70 70 71 71 71 70 70 70 69 64 67 68 74 74 74 73 73 73 72 70 70 71 72 71
69 69 69 70 70 70 70 69 69 69 69 69 69 69 70 70 70 69 70 70 70 70 69 67 66 65 61 63 66 67 71 74 74 74 73 73 72 72 72 72 71 71
69 69 70 70 70 71 70 70 69 69 69 69 70 70 71 71 70 69 69 69 69 68 67 66 63 62 61 62 63 64 65 73 72 72 73 73 73 72 72 72 71 72
69 69 69 70 71 71 70 69 69 70 70 70 71 72 71 70 69 68 68 67 67 66 64 62 62 61 59 60 61 62 63 68 71 71 71 71 71 71 72 71 71 71
68 68 68 68 69 70 70 70 70 71 70 70 71 70 70 69 68 66 66 66 64 62 61 59 58 58 57 58 58 59 61 69 71 71 71 72 72 72 72 72 71 70
68 67 67 69 69 69 69 69 69 69 70 71 71 70 70 69 68 66 65 63 63 62 61 60 59 57 56 56 57 58 62 71 71 71 72 72 72 72 71 70 69 67
68 69 69 69 69 68 69 69 69 69 69 70 70 70 69 68 66 65 64 63 63 61 59 59 58 57 55 55 56 58 65 70 71 72 71 70 70 70 69 69 68 66
68 68 68 68 68 68 69 69 69 69 70 71 69 69 68 68 66 65 65 65 62 61 60 58 58 58 54 53 55 57 67 70 71 71 70 70 69 69 68 68 69 69
68 69 68 69 69 69 69 69 69 69 70 69 69 69 68 68 66 64 64 64 63 62 63 58 58 59 55 53 54 56 65 68 70 70 70 70 69 65 64 63 64 65
69 69 69 69 69 69 69 69 70 69 69 70 70 69 68 67 66 64 62 62 61 60 60 59 58 58 58 53 54 56 60 65 66 68 68 68 68 66 65 65 66 64